This is the latest recevied weather packets stored in our database for station/object K8FJG-13. If no packets are shown the sender has not sent any weather packets the latest 10 day(s).
| Time | Temp. | Humidity | Pressure | Rain* | Wind** | Luminosity | Snow |
|---|---|---|---|---|---|---|---|
| 1777928536 | 22.22° C | 49% | 960.2 hPa | - | - | - | - |
| 1777927933 | 22.22° C | 48% | 960.4 hPa | - | - | - | - |
| 1777927330 | 22.78° C | 45% | 960.3 hPa | - | - | - | - |
| 1777926727 | 22.78° C | 47% | 960.3 hPa | - | - | - | - |
| 1777926124 | 22.22° C | 47% | 960.3 hPa | - | - | - | - |
| 1777925521 | 22.22° C | 46% | 960.4 hPa | - | - | - | - |
| 1777924917 | 22.22° C | 50% | 960.5 hPa | - | - | - | - |
| 1777924314 | 21.67° C | 50% | 960.7 hPa | - | - | - | - |
| 1777923711 | 21.67° C | 50% | 960.9 hPa | - | - | - | - |
| 1777923108 | 22.22° C | 50% | 961.1 hPa | - | - | - | - |
| 1777922505 | 22.22° C | 50% | 961.3 hPa | - | - | - | - |
| 1777921901 | 21.67° C | 47% | 961.3 hPa | - | - | - | - |
| 1777921299 | 21.67° C | 47% | 961.4 hPa | - | - | - | - |
| 1777920695 | 21.67° C | 47% | 961.4 hPa | - | - | - | - |
| 1777920092 | 22.22° C | 44% | 961.6 hPa | - | - | - | - |
| 1777919489 | 21.67° C | 46% | 961.6 hPa | - | - | - | - |
| 1777918886 | 21.11° C | 48% | 961.6 hPa | - | - | - | - |
| 1777918283 | 21.67° C | 47% | 961.8 hPa | - | - | - | - |
| 1777917680 | 22.22° C | 46% | 961.9 hPa | - | - | - | - |
| 1777917077 | 21.67° C | 45% | 961.9 hPa | - | - | - | - |
| 1777916474 | 21.67° C | 46% | 962.2 hPa | - | - | - | - |
| 1777915870 | 21.11° C | 46% | 962.1 hPa | - | - | - | - |
| 1777915267 | 21.11° C | 47% | 962.1 hPa | - | - | - | - |
| 1777914664 | 20.56° C | 49% | 962.2 hPa | - | - | - | - |
| 1777914061 | 20.56° C | 47% | 962.3 hPa | - | - | - | - |
* Rain since midnight (hover to see other rain measurements)
** Current wind speed in m/s (hover to see current wind gust speed)